• In Belarus
  • List of Countries
  • For 7 days
  • Water Temperature
  • Satellite Maps
  • Weather Map
  • Weather Widgets
  • user-avatar
    Login

    Hourly Weather Armawir

    Today, 19 August, Sunday

    Time Temperature Precipitation Wind Pressure Humidity
    00:00 +25°C° 0.4 mm 3 mps 682 mmHg 63%
    01:00 +24°C° 0.5 mm 3 mps 683 mmHg 65%
    02:00 +24°C° 0.5 mm 3 mps 683 mmHg 68%
    03:00 +22°C° 0 mm 3 mps 683 mmHg 71%
    04:00 +22°C° 0.6 mm 3 mps 683 mmHg 71%
    05:00 +22°C° 0.6 mm 3 mps 683 mmHg 72%
    06:00 +22°C° 0.6 mm 3 mps 683 mmHg 73%
    07:00 +24°C° 0.1 mm 2 mps 683 mmHg 65%
    08:00 +26°C° 0.1 mm 2 mps 683 mmHg 58%
    09:00 +28°C° 0 mm 2 mps 683 mmHg 51%
    10:00 +29°C° 0.4 mm 2 mps 683 mmHg 47%
    11:00 +30°C° 0.4 mm 2 mps 683 mmHg 43%
    12:00 +31°C° 0.4 mm 2 mps 683 mmHg 39%
    13:00 +31°C° 0.5 mm 2 mps 683 mmHg 38%
    14:00 +33°C° 0.5 mm 3 mps 683 mmHg 37%
    15:00 +32°C° 0 mm 2 mps 683 mmHg 34%
    16:00 +31°C° 0.6 mm 3 mps 683 mmHg 37%
    17:00 +30°C° 0.6 mm 3 mps 683 mmHg 40%
    18:00 +30°C° 0.6 mm 4 mps 683 mmHg 43%
    19:00 +28°C° 0.4 mm 3 mps 684 mmHg 48%
    20:00 +26°C° 0.4 mm 3 mps 684 mmHg 53%
    21:00 +25°C° 0.4 mm 2 mps 684 mmHg 57%
    22:00 +24°C° 0.2 mm 2 mps 685 mmHg 60%
    23:00 +24°C° 0.2 mm 2 mps 685 mmHg 62%

    Tomorrow, 20 August, Monday

    Time Temperature Precipitation Wind Pressure Humidity
    00:00 +23°C° 0.2 mm 2 mps 685 mmHg 64%
    01:00 +23°C° 0.2 mm 2 mps 685 mmHg 66%
    02:00 +21°C° 0.2 mm 2 mps 685 mmHg 69%
    03:00 +21°C° 0.2 mm 2 mps 685 mmHg 71%
    04:00 +21°C° 0.1 mm 2 mps 686 mmHg 71%
    05:00 +21°C° 0.1 mm 2 mps 686 mmHg 72%
    06:00 +21°C° 0.1 mm 2 mps 686 mmHg 72%
    07:00 +23°C° 0.1 mm 2 mps 687 mmHg 65%
    08:00 +25°C° 0.1 mm 2 mps 687 mmHg 58%
    09:00 +26°C° 0.1 mm 2 mps 687 mmHg 51%
    10:00 +28°C° 0.1 mm 3 mps 687 mmHg 48%
    11:00 +29°C° 0.1 mm 3 mps 687 mmHg 44%
    12:00 +30°C° 0.1 mm 3 mps 687 mmHg 40%
    13:00 +31°C° 0.2 mm 3 mps 687 mmHg 38%
    14:00 +32°C° 0.2 mm 4 mps 687 mmHg 37%
    15:00 +33°C° 0.2 mm 4 mps 687 mmHg 36%
    16:00 +32°C° 0.2 mm 4 mps 687 mmHg 38%
    17:00 +30°C° 0.2 mm 5 mps 686 mmHg 41%
    18:00 +29°C° 0.2 mm 5 mps 686 mmHg 44%
    19:00 +27°C° 0.3 mm 4 mps 687 mmHg 50%
    20:00 +26°C° 0.3 mm 4 mps 687 mmHg 56%
    21:00 +24°C° 0.3 mm 3 mps 687 mmHg 62%
    22:00 +24°C° 0.3 mm 3 mps 687 mmHg 63%
    23:00 +22°C° 0.3 mm 3 mps 687 mmHg 65%

    Day after tomorrow, 21 August, Tuesday

    Time Temperature Precipitation Wind Pressure Humidity
    00:00 +23°C° 0.3 mm 2 mps 687 mmHg 67%
    01:00 +21°C° 0.1 mm 2 mps 687 mmHg 68%
    02:00 +21°C° 0.1 mm 2 mps 687 mmHg 69%
    03:00 +20°C° 0.1 mm 2 mps 687 mmHg 70%
    04:00 +20°C° 0 mm 2 mps 687 mmHg 70%
    05:00 +20°C° 0 mm 2 mps 687 mmHg 70%
    06:00 +20°C° 0 mm 2 mps 687 mmHg 70%
    07:00 +23°C° 0 mm 2 mps 687 mmHg 62%
    08:00 +25°C° 0 mm 2 mps 687 mmHg 54%
    09:00 +27°C° 0 mm 2 mps 687 mmHg 45%
    10:00 +29°C° 0 mm 2 mps 687 mmHg 41%
    11:00 +31°C° 0 mm 2 mps 687 mmHg 36%
    12:00 +32°C° 0 mm 2 mps 687 mmHg 32%
    13:00 +34°C° 0 mm 2 mps 686 mmHg 30%
    14:00 +34°C° 0 mm 2 mps 686 mmHg 28%
    15:00 +35°C° 0 mm 2 mps 686 mmHg 27%
    16:00 +34°C° 0.1 mm 2 mps 685 mmHg 29%
    17:00 +34°C° 0.1 mm 2 mps 685 mmHg 31%
    18:00 +32°C° 0.1 mm 2 mps 685 mmHg 34%
    19:00 +30°C° 0 mm 2 mps 685 mmHg 40%
    20:00 +28°C° 0 mm 2 mps 686 mmHg 46%
    21:00 +26°C° 0 mm 3 mps 686 mmHg 52%
    22:00 +26°C° 0.1 mm 3 mps 686 mmHg 55%
    23:00 +25°C° 0.1 mm 2 mps 686 mmHg 58%

    22 August, Wednesday

    Time Temperature Precipitation Wind Pressure Humidity
    00:00 +24°C° 0.1 mm 2 mps 686 mmHg 61%
    01:00 +24°C° 0 mm 2 mps 686 mmHg 62%
    02:00 +23°C° 0 mm 2 mps 686 mmHg 63%
    03:00 +23°C° 0 mm 2 mps 686 mmHg 64%
    04:00 +23°C° 0 mm 2 mps 686 mmHg 64%
    05:00 +21°C° 0 mm 2 mps 686 mmHg 64%
    06:00 +21°C° 0 mm 2 mps 686 mmHg 64%
    07:00 +24°C° 0 mm 2 mps 687 mmHg 56%
    08:00 +27°C° 0 mm 1 mps 687 mmHg 49%
    09:00 +29°C° 0 mm 1 mps 687 mmHg 41%
    10:00 +30°C° 0 mm 1 mps 687 mmHg 37%
    11:00 +32°C° 0 mm 1 mps 687 mmHg 33%
    12:00 +33°C° 0 mm 1 mps 686 mmHg 30%
    13:00 +35°C° 0 mm 2 mps 686 mmHg 28%
    14:00 +35°C° 0 mm 2 mps 686 mmHg 26%
    15:00 +36°C° 0 mm 2 mps 686 mmHg 25%
    16:00 +35°C° 0 mm 2 mps 686 mmHg 28%
    17:00 +34°C° 0 mm 3 mps 686 mmHg 30%
    18:00 +33°C° 0 mm 3 mps 686 mmHg 33%
    19:00 +30°C° 0.1 mm 3 mps 686 mmHg 39%
    20:00 +29°C° 0.1 mm 3 mps 686 mmHg 46%
    21:00 +27°C° 0.1 mm 3 mps 687 mmHg 53%
    22:00 +26°C° 0 mm 3 mps 687 mmHg 55%
    23:00 +25°C° 0 mm 3 mps 687 mmHg 57%

    23 August, Thursday

    Time Temperature Precipitation Wind Pressure Humidity
    00:00 +24°C° 0 mm 2 mps 687 mmHg 59%
    01:00 +24°C° 0 mm 2 mps 687 mmHg 60%
    02:00 +23°C° 0 mm 2 mps 687 mmHg 62%
    03:00 +23°C° 0 mm 2 mps 687 mmHg 63%
    04:00 +23°C° 0 mm 2 mps 687 mmHg 64%
    05:00 +23°C° 0 mm 2 mps 687 mmHg 65%
    06:00 +21°C° 0 mm 2 mps 687 mmHg 66%
    07:00 +24°C° 0 mm 2 mps 687 mmHg 58%
    08:00 +27°C° 0 mm 2 mps 687 mmHg 51%
    09:00 +29°C° 0 mm 2 mps 688 mmHg 44%
    10:00 +30°C° 0 mm 2 mps 687 mmHg 39%
    11:00 +32°C° 0 mm 2 mps 687 mmHg 35%
    12:00 +34°C° 0 mm 2 mps 687 mmHg 30%
    13:00 +35°C° 0 mm 2 mps 687 mmHg 29%
    14:00 +35°C° 0 mm 2 mps 686 mmHg 27%
    15:00 +36°C° 0 mm 3 mps 686 mmHg 26%
    16:00 +35°C° 0 mm 3 mps 686 mmHg 28%
    17:00 +34°C° 0 mm 3 mps 686 mmHg 31%
    18:00 +33°C° 0 mm 3 mps 686 mmHg 33%
    19:00 +30°C° 0.1 mm 3 mps 687 mmHg 39%
    20:00 +28°C° 0.1 mm 3 mps 687 mmHg 46%
    21:00 +27°C° 0.1 mm 3 mps 687 mmHg 52%
    22:00 +26°C° 0 mm 3 mps 687 mmHg 53%
    23:00 +25°C° 0 mm 2 mps 688 mmHg 54%

    24 August, Friday

    Time Temperature Precipitation Wind Pressure Humidity
    00:00 +24°C° 0 mm 2 mps 688 mmHg 56%
    01:00 +24°C° 0 mm 2 mps 687 mmHg 57%
    02:00 +23°C° 0 mm 2 mps 687 mmHg 58%
    03:00 +23°C° 0 mm 2 mps 687 mmHg 59%
    04:00 +23°C° 0 mm 2 mps 687 mmHg 59%
    05:00 +23°C° 0 mm 2 mps 688 mmHg 59%
    06:00 +23°C° 0 mm 2 mps 688 mmHg 60%
    07:00 +25°C° 0 mm 2 mps 688 mmHg 52%
    08:00 +27°C° 0 mm 2 mps 688 mmHg 45%
    09:00 +29°C° 0 mm 2 mps 688 mmHg 38%
    10:00 +31°C° 0 mm 2 mps 688 mmHg 34%
    11:00 +32°C° 0 mm 2 mps 687 mmHg 30%
    12:00 +35°C° 0 mm 3 mps 687 mmHg 27%
    13:00 +36°C° 0 mm 3 mps 687 mmHg 25%
    14:00 +36°C° 0 mm 3 mps 686 mmHg 24%
    15:00 +37°C° 0 mm 3 mps 686 mmHg 23%
    16:00 +36°C° 0 mm 3 mps 686 mmHg 25%
    17:00 +35°C° 0 mm 3 mps 686 mmHg 27%
    18:00 +34°C° 0 mm 3 mps 686 mmHg 29%
    19:00 +31°C° 0 mm 3 mps 686 mmHg 35%
    20:00 +29°C° 0 mm 3 mps 687 mmHg 41%
    21:00 +27°C° 0 mm 3 mps 687 mmHg 47%
    22:00 +26°C° 0 mm 3 mps 687 mmHg 48%
    23:00 +26°C° 0 mm 2 mps 687 mmHg 49%
    Show more